Weather History for KGPM - November, 2012

Change the Weather History Date:

Sunday, November 11, 2012

  Actual Average (KDFW) Record (KDFW)
Temperature  
Mean Temperature 60 °F 58 °F  
Max Temperature 75 °F 69 °F 85 °F (1911)
Min Temperature 42 °F 48 °F 19 °F (1950)
Degree Days  
Heating Degree Days 6 8  
Month to date heating degree days 69  
Since 1 July heating degree days 141  
Cooling Degree Days 0 1  
Month to date cooling degree days 19  
Year to date cooling degree days 2742  
Growing Degree Days 10 (Base 50)    
Moisture  
Dew Point 53 °F    
Average Humidity 72    
Maximum Humidity 78    
Minimum Humidity 61    
Precipitation  
Precipitation 0.00 in 0.10 in 1.68 in (2008)
Month to date precipitation 1.19  
Year to date precipitation 32.07  
Snow  
Snow 0.00 in 0.00 in T in (1907)
Month to date snowfall 0.0  
Since 1 July snowfall 0.0  
Since 1 September snowfall 0.0  
Snow Depth -    
Sea Level Pressure  
Sea Level Pressure 29.98 in    
Wind  
Wind Speed 17 mph (SSW)    
Max Wind Speed 25 mph    
Max Gust Speed 36 mph    
Visibility 10 miles    
Events      
T = Trace of Precipitation, MM = Missing Value Source: NWS Daily Summary

Daily Weather History Graph

Daily Weather History Graph

Search for Another Location

Airport or City:

Trip Planner

Search our weather history database for the weather conditions in past years. The results will help you decide how hot, cold, wet, or windy it might be!

Date:

Astronomy

Nov. 11, 2012 Rise Set
Actual Time 6:55 AM CST 5:29 PM CST
Civil Twilight 6:29 AM CST 5:55 PM CST
Nautical Twilight 5:59 AM CST 6:24 PM CST
Astronomical Twilight 5:30 AM CST 6:53 PM CST
Moon 4:17 AM CST (11/11) 3:48 PM CST (11/11)
Length of Visible Light 11h 26m
Length of Day
10h 34m
Waning Crescent, 7% of the Moon is Illuminated
Nov 11
Waning Crescent
Nov 13
New
Nov 20
First Quarter
Nov 28
Full
Dec 6
Last Quarter

Hourly Weather History & Observations

Time (CST) Temp. Windchill Dew Point Humidity Pressure Visibility Wind Dir Wind Speed Gust Speed Precip Events Conditions
12:55 AM 69.8 °F - 62.6 °F 78% 29.85 in 10.0 mi South 18.4 mph 29.9 mph N/A   Scattered Clouds
1:15 AM 69.8 °F - 60.8 °F 73% 29.84 in 10.0 mi South 16.1 mph 26.5 mph N/A   Scattered Clouds
1:35 AM 69.8 °F - 62.6 °F 78% 29.83 in 10.0 mi South 13.8 mph 28.8 mph N/A   Scattered Clouds
1:55 AM 69.8 °F - 62.6 °F 78% 29.82 in 10.0 mi South 19.6 mph 27.6 mph N/A   Scattered Clouds
2:15 AM 71.6 °F - 62.6 °F 73% 29.81 in 10.0 mi South 20.7 mph 33.4 mph N/A   Scattered Clouds
2:35 AM 71.6 °F - 62.6 °F 73% 29.80 in 10.0 mi South 25.3 mph 35.7 mph N/A   Clear
2:55 AM 71.6 °F - 62.6 °F 73% 29.80 in 10.0 mi South 18.4 mph 34.5 mph N/A   Scattered Clouds
3:15 AM 69.8 °F - 62.6 °F 78% 29.79 in 10.0 mi South 21.9 mph 34.5 mph N/A   Clear
3:35 AM 69.8 °F - 62.6 °F 78% 29.79 in 10.0 mi South 24.2 mph 31.1 mph N/A   Scattered Clouds
3:55 AM 71.6 °F - 62.6 °F 73% 29.80 in 10.0 mi South 18.4 mph 25.3 mph N/A   Mostly Cloudy
4:15 AM 69.8 °F - 62.6 °F 78% 29.80 in 10.0 mi South 13.8 mph 25.3 mph N/A   Mostly Cloudy
4:35 AM 69.8 °F - 62.6 °F 78% 29.80 in 10.0 mi South 21.9 mph 31.1 mph N/A   Mostly Cloudy
4:55 AM 69.8 °F - 62.6 °F 78% 29.81 in 10.0 mi South 19.6 mph 27.6 mph N/A   Mostly Cloudy
5:15 AM 69.8 °F - 62.6 °F 78% 29.81 in 10.0 mi South 19.6 mph 26.5 mph N/A   Overcast
5:35 AM 71.6 °F - 62.6 °F 73% 29.82 in 10.0 mi South 17.3 mph 27.6 mph N/A   Overcast
5:55 AM 69.8 °F - 62.6 °F 78% 29.83 in 10.0 mi South 16.1 mph 28.8 mph N/A   Scattered Clouds
7:50 AM 71.6 °F - 62.6 °F 73% 29.90 in 10.0 mi South 10.4 mph - N/A   Overcast
8:50 AM 73.4 °F - 62.6 °F 69% 29.92 in 10.0 mi South 13.8 mph 20.7 mph N/A   Overcast
10:50 AM 75.2 °F - 60.8 °F 61% 29.90 in 10.0 mi South 12.7 mph 24.2 mph N/A   Scattered Clouds
12:50 PM 59.0 °F - 51.8 °F 77% 29.97 in 10.0 mi NNW 6.9 mph - N/A   Overcast
2:50 PM 60.8 °F - 51.8 °F 72% 29.97 in 10.0 mi NW 4.6 mph - N/A   Mostly Cloudy
8:15 PM 53.6 °F - 44.6 °F 72% 30.18 in 10.0 mi North 18.4 mph 23.0 mph N/A   Overcast
8:35 PM 53.6 °F - 42.8 °F 67% 30.20 in 10.0 mi North 17.3 mph 21.9 mph N/A   Overcast
8:55 PM 51.8 °F - 42.8 °F 71% 30.21 in 10.0 mi North 15.0 mph 20.7 mph N/A   Overcast
9:15 PM 51.8 °F - 41.0 °F 67% 30.23 in 10.0 mi North 11.5 mph 18.4 mph N/A   Mostly Cloudy
9:35 PM 50.0 °F - 37.4 °F 62% 30.24 in 10.0 mi North 11.5 mph 18.4 mph N/A   Scattered Clouds
9:55 PM 50.0 °F - 37.4 °F 62% 30.25 in 10.0 mi North 13.8 mph 19.6 mph N/A   Clear
10:15 PM 46.4 °F 42.4 °F 37.4 °F 71% 30.27 in 10.0 mi NNW 8.1 mph - N/A   Clear
10:35 PM 46.4 °F 41.5 °F 35.6 °F 66% 30.27 in 10.0 mi North 10.4 mph 17.3 mph N/A   Clear
11:15 PM 44.6 °F 38.8 °F 35.6 °F 71% 30.30 in 10.0 mi North 11.5 mph 18.4 mph N/A   Clear
11:35 PM 44.6 °F 38.1 °F 33.8 °F 66% 30.30 in 10.0 mi North 13.8 mph - N/A   Clear
11:55 PM 42.8 °F 38.0 °F 33.8 °F 70% 30.31 in 10.0 mi North 8.1 mph - N/A   Clear